Jerez de la Frontera, Spain

9:17 PM CEST on April 25, 2017 (GMT +0200)
Jerez

Weather History for LEJR - October, 2012

Change the Weather History Date:

Sunday, October 28, 2012

  Actual Average Record
Temperature  
Mean Temperature 60 °F -  
Max Temperature 68 °F 66 °F 84 °F (2016)
Min Temperature 53 °F 48 °F 46 °F (2010)
Degree Days  
Heating Degree Days 4    
Growing Degree Days 10 (Base 50)    
Moisture  
Dew Point 49 °F    
Average Humidity 69    
Maximum Humidity 100    
Minimum Humidity 43    
Precipitation  
Precipitation 0.00 in 0.14 in - ()
Sea Level Pressure  
Sea Level Pressure 29.96 in    
Wind  
Wind Speed 6 mph ()    
Max Wind Speed 15 mph    
Max Gust Speed -    
Visibility 7.4 miles    
Events Fog    
Averages and records for this station are not official NWS values.
T = Trace of Precipitation, MM = Missing Value Source: Averaged Metar Reports

Daily Weather History Graph

Daily Weather History Graph

Search for Another Location

Airport or City:

Trip Planner

Search our weather history database for the weather conditions in past years. The results will help you decide how hot, cold, wet, or windy it might be!

Date:

Astronomy

Oct. 28, 2012 Rise Set
Actual Time 7:44 AM CET 6:31 PM CET
Civil Twilight 7:17 AM CET 6:57 PM CET
Nautical Twilight 6:47 AM CET 7:28 PM CET
Astronomical Twilight 6:17 AM CET 7:58 PM CET
Moon 5:41 PM CET (10/28) 6:24 AM CET (10/28)
Length of Visible Light 11h 40m
Length of Day
10h 47m
Waxing Gibbous, 98% of the Moon is Illuminated
Oct 28
Waxing Gibbous
Oct 29
Full
Nov 7
Last Quarter
Nov 13
New
Nov 20
First Quarter

Hourly Weather History & Observations

Time (CET) Temp. Dew Point Humidity Pressure Visibility Wind Dir Wind Speed Gust Speed Precip Events Conditions
2:00 AM 57 °F 57 °F 100% 29.86 in 19 mi Calm Calm - -  
4:00 AM 57.2 °F 57.2 °F 100% 29.86 in 6.2 mi Calm Calm - N/A   Mostly Cloudy
4:30 AM 57.2 °F 55.4 °F 94% 29.89 in 6.2 mi Variable 1.2 mph - N/A   Mostly Cloudy
5:00 AM 55.4 °F 55.4 °F 100% 29.89 in - Variable 1.2 mph - N/A   Clear
5:30 AM 55.4 °F 55.4 °F 100% 29.89 in - North 4.6 mph - N/A   Clear
6:00 AM 55.4 °F 50.0 °F 82% 29.89 in - NE 8.1 mph - N/A   Clear
7:00 AM 55 °F 52 °F 87% 29.91 in 19 mi NNE 9.2 mph - -  
7:00 AM 55.4 °F 50.0 °F 82% 29.92 in - NE 9.2 mph - N/A   Clear
7:30 AM 55.4 °F 48.2 °F 77% 29.92 in - NNE 9.2 mph - N/A   Clear
8:00 AM 53.6 °F 48.2 °F 82% 29.92 in - NNE 6.9 mph - N/A   Clear
8:30 AM 53.6 °F 48.2 °F 82% 29.95 in - NNE 9.2 mph - N/A   Clear
9:00 AM 55.4 °F 46.4 °F 72% 29.95 in 6.2 mi NNE 10.4 mph - N/A Fog Partly Cloudy
9:30 AM 55.4 °F 44.6 °F 67% 29.95 in 6.2 mi NNE 12.7 mph - N/A Fog Partly Cloudy
10:30 AM 59.0 °F 46.4 °F 63% 29.98 in 6.2 mi NNE 10.4 mph - N/A Fog Partly Cloudy
11:00 AM 60.8 °F 48.2 °F 63% 29.98 in 6.2 mi North 10.4 mph - N/A   Partly Cloudy
11:30 AM 60.8 °F 48.2 °F 63% 29.98 in 6.2 mi NNE 12.7 mph - N/A   Partly Cloudy
12:00 PM 62.6 °F 48.2 °F 59% 29.98 in 6.2 mi NNE 12.7 mph - N/A   Partly Cloudy
12:30 PM 62.6 °F 50.0 °F 63% 29.98 in 6.2 mi North 12.7 mph - N/A   Partly Cloudy
1:00 PM 65 °F 51 °F 51% 29.99 in 25 mi North 13.8 mph - -   Scattered Clouds
1:00 PM 64.4 °F 50.0 °F 59% 29.98 in 6.2 mi NNE 13.8 mph - N/A   Partly Cloudy
1:30 PM 64.4 °F 48.2 °F 56% 29.98 in 6.2 mi NNE 15.0 mph - N/A   Partly Cloudy
2:00 PM 64.4 °F 46.4 °F 52% 29.98 in 6.2 mi NNE 15.0 mph - N/A   Partly Cloudy
2:30 PM 64.4 °F 46.4 °F 52% 29.95 in 6.2 mi NNE 13.8 mph - N/A   Partly Cloudy
3:00 PM 66.2 °F 46.4 °F 49% 29.95 in 6.2 mi NNE 12.7 mph - N/A   Partly Cloudy
3:30 PM 66.2 °F 44.6 °F 46% 29.95 in 6.2 mi NNE 13.8 mph - N/A   Partly Cloudy
4:30 PM 66.2 °F 42.8 °F 43% 29.95 in 6.2 mi NE 6.9 mph - N/A   Partly Cloudy
5:00 PM 66.2 °F 44.6 °F 46% 29.98 in 6.2 mi ENE 4.6 mph - N/A   Partly Cloudy
5:30 PM 68.0 °F 48.2 °F 49% 29.98 in 6.2 mi Variable 1.2 mph - N/A   Partly Cloudy
6:00 PM 64.4 °F 46.4 °F 52% 29.98 in 6.2 mi NNE 4.6 mph - N/A   Scattered Clouds
6:30 PM 64.4 °F 46.4 °F 52% 29.98 in 6.2 mi Variable 2.3 mph - N/A   Scattered Clouds
7:00 PM 60 °F 48 °F 55% 30.00 in 19 mi North 2.3 mph - -   Scattered Clouds
7:00 PM 60.8 °F 46.4 °F 59% 29.98 in 6.2 mi North 3.5 mph - N/A   Partly Cloudy
7:30 PM 60.8 °F 46.4 °F 59% 30.01 in 6.2 mi Variable 1.2 mph - N/A   Partly Cloudy
8:00 PM 60.8 °F 51.8 °F 72% 30.01 in 6.2 mi Calm Calm - N/A   Scattered Clouds
8:30 PM 59.0 °F 50.0 °F 72% 30.01 in 6.2 mi Variable 1.2 mph - N/A   Scattered Clouds
9:00 PM 59.0 °F 51.8 °F 77% 30.01 in 6.2 mi Calm Calm - N/A   Partly Cloudy
9:30 PM 59.0 °F 51.8 °F 77% 30.01 in 6.2 mi SE 3.5 mph - N/A   Partly Cloudy
10:00 PM 57.2 °F 50.0 °F 77% 30.01 in 6.2 mi Variable 1.2 mph - N/A   Partly Cloudy
10:30 PM 55.4 °F 50.0 °F 82% 30.01 in 6.2 mi East 3.5 mph - N/A   Partly Cloudy